SCP
0 0 0 0 0 0 0 0 0 0 0 0 1 1 1 1 1 0 0 0 0 0 0 0 0 0 0 0 0 0 0 0 0 0 0 0 1 1
0 0 0 0 0 0 0 0 0 0 0 0 0 1 1 1 0 0 0 0 0 0 0 0 0 0 0 0 0 0 0 0 0 0 0 0 0 0
0 0 0 0 0 0 0 0 0 0 0 0 0 0 0 0 0 0 0 0 0 0 0 0 0 0 0 0 0 0 0 0 0 0 0 0 0 0
0 0 0 0 0 0 0 0 0 0 0 0 0 0 0 0 0 0 0 0 0 0 0 0 0 0 0 0 0 0 0 0 0 0 0 0 0 0
0 0 0 0 0 0 0 0 0 0 0 0 0 0 0 0 0 0 0 0 0 0 0 0 0 0 0 0 0 0 0 0 0 0 0 0 0 0
0 0 0 0 0 0 0 0 0 0 0 0 0 0 0 0 0 0 0 0 0 0 0 0 0 0 0 0 0 0 0 0 0 0 0 0 0 0
0 0 0 0 0 0 0 0 0 0 0 0 0 0 0 0 0 0 0 0 0 0 0 0 0 0 0 0 0 0 0 0 0 0 0 0 0 0
0 0 0 0 0 0 0 0 0 0 0 0 0 0 0 0 0 0 0 0 0 0 0 0 0 0 0 0 0 0 0 0 0 0 0 -0 -0 -0
0 0 0 0 0 0 0 0 0 0 0 0 0 0 0 0 0 0 0 0 0 0 0 0 0 0 0 0 0 0 0 0 0 0 0 -0 -0 0
0 0 0 0 0 0 0 0 0 0 0 0 0 0 0 0 0 0 0 0 0 0 0 0 0 0 0 -0 -0 0 0 0 0 0 0 0 0 0
0 0 0 0 0 0 0 0 0 0 0 0 0 0 0 0 0 0 0 0 0 0 0 0 0 0 -0 -0 -0 -0 -0 -0 0 0 0 0 0 0
0 0 0 0 0 0 0 0 0 0 0 0 0 0 0 0 0 0 0 0 0 0 0 0 0 0 -0 -0 -0 -0 -0 0 0 0 -0 0 0 0
0 0 0 0 0 0 0 0 0 0 0 0 0 0 0 0 0 0 0 0 0 0 0 0 0 0 0 -0 -0 -0 0 0 0 0 0 0 0 0
0 0 0 0 0 0 0 0 0 0 0 0 0 0 0 0 0 0 0 0 0 0 0 0 0 0 0 0 -0 0 0 0 0 0 0 0 0 0
0 0 0 0 0 0 0 0 0 0 0 0 0 0 0 0 0 0 0 0 0 0 0 0 0 0 0 0 0 0 0 0 0 0 0 0 0 0
0 0 0 0 0 0 0 0 0 0 0 0 0 0 0 0 0 0 0 0 0 0 0 0 0 0 0 0 0 0 0 0 0 0 0 0 0 0
0 0 0 0 0 0 0 0 0 0 0 0 0 0 0 0 0 0 0 0 0 0 0 0 0 0 0 0 0 0 0 0 0 0 0 0 0 0
0 0 0 0 0 0 0 0 0 0 0 0 0 0 0 0 0 0 0 0 0 0 0 0 0 0 0 0 0 0 0 0 0 0 0 0 0 0
0 0 0 0 0 0 0 0 0 0 0 0 0 0 0 0 0 0 0 0 0 0 0 0 0 0 0 0 0 0 0 0 0 0 0 0 0 0
0 0 0 0 0 0 0 0 0 0 0 0 0 0 0 0 0 0 0 0 0 0 0 0 0 0 0 0 0 0 0 -0 0 0 0 0 0 0
0 0 0 0 0 0 0 0 0 0 0 0 0 0 0 0 0 0 0 0 0 0 0 0 0 0 0 0 0 0 0 0 0 0 0 0 0 0
0 0 0 0 0 0 0 0 0 0 0 0 0 0 0 0 0 0 0 0 0 0 0 0 0 0 0 0 0 0 0 0 0 0 0 0 0 0
0 0 0 0 0 0 0 0 0 0 0 0 0 0 0 0 0 0 0 0 0 0 0 0 0 0 0 0 0 0 0 0 0 0 0 0 0 0
Wind_Speed
6 7 6 6 6 6 6 6 7 6 5 1 1 2 3 5 6 7 8 11 12 12 11 11 10 8 7 5 4 3 3 2 3 6 9 13 16 17
5 6 6 5 5 6 6 6 7 6 4 1 1 1 3 6 8 9 10 15 14 14 13 13 13 13 12 12 12 11 10 9 8 6 5 4 5 6
5 5 6 7 5 5 5 5 5 5 4 1 1 3 5 8 8 8 8 8 9 14 15 15 15 15 15 15 15 15 16 16 15 14 13 12 10 8
4 5 6 6 6 5 4 4 3 3 5 6 3 3 5 7 8 9 8 8 8 14 16 16 16 16 16 16 16 16 17 17 17 17 16 15 15 14
2 3 5 5 5 4 4 2 1 2 4 6 5 4 4 6 8 9 10 8 8 11 14 15 16 16 16 15 16 16 16 15 16 16 15 15 14 14
1 1 2 3 3 3 2 1 1 4 6 7 7 5 5 6 7 7 7 5 6 8 9 11 14 16 15 15 15 15 14 14 14 14 13 13 12 12
3 2 2 3 4 3 2 2 3 5 6 7 7 6 6 6 5 5 7 6 6 6 6 6 6 7 8 11 13 14 12 12 12 12 11 11 11 10
5 4 4 3 4 6 8 9 7 6 7 6 6 6 6 6 5 6 7 6 5 4 5 5 5 6 5 5 8 10 11 11 11 11 10 10 9 9
7 6 5 5 4 4 7 10 11 11 8 6 7 6 6 5 6 6 5 4 5 5 6 7 6 6 5 6 8 9 10 10 10 10 10 9 9 9
8 7 6 6 5 5 6 8 8 7 7 6 7 6 6 5 5 6 6 6 5 4 6 7 6 5 6 4 6 8 9 9 9 9 10 9 8 9
9 9 8 7 7 8 8 8 9 8 11 13 12 10 10 8 5 4 4 5 5 4 4 5 6 5 4 3 4 6 7 8 8 8 10 11 9 9
8 9 10 10 10 9 8 8 8 7 8 9 8 7 6 7 6 3 2 4 5 4 3 4 5 5 4 3 4 4 3 4 6 6 9 11 11 5
9 9 8 13 11 9 8 7 9 8 7 7 5 4 4 5 6 5 4 4 5 4 2 2 3 3 4 4 3 4 4 3 3 3 4 8 10 7
7 8 10 15 12 9 7 10 12 9 5 5 5 4 5 6 6 6 7 8 8 6 5 4 3 3 4 4 3 3 3 3 3 3 3 6 7 9
3 10 15 16 12 8 10 11 8 4 4 5 5 6 6 6 5 5 6 7 8 7 8 7 5 4 4 4 3 3 3 3 3 2 2 3 4 3
4 13 17 15 9 9 9 6 4 3 4 6 7 7 5 4 4 4 4 5 5 5 5 7 7 7 5 4 4 3 3 3 2 2 1 1 3 4
7 9 9 8 7 7 6 4 4 3 5 7 7 6 5 4 4 4 4 4 5 4 3 3 4 5 6 4 3 3 3 2 2 0 1 0 3 5
8 10 10 9 8 8 7 6 4 4 5 6 6 5 4 4 4 4 4 5 5 5 4 4 4 3 3 4 4 2 3 2 1 1 1 1 1 3
6 8 9 8 7 8 7 6 5 5 5 6 5 4 4 5 4 3 3 4 4 4 4 4 4 5 5 4 1 3 2 1 2 2 2 2 1 2
6 7 8 7 7 7 7 6 6 6 5 5 5 5 5 4 4 4 4 4 4 4 3 2 2 2 2 3 4 2 2 2 1 0 1 2 1 1
6 6 7 7 7 7 6 6 7 6 5 5 5 5 4 4 4 4 4 5 4 4 4 3 2 1 1 1 2 4 4 5 5 3 2 1 2 1
5 6 6 7 6 6 7 7 8 6 6 5 5 4 4 4 4 5 5 4 3 4 6 4 2 2 2 2 1 3 5 4 5 6 5 5 3 2
4 4 5 7 7 7 7 8 9 6 5 5 6 4 4 4 5 5 5 4 4 6 6 5 5 4 4 3 2 2 3 4 4 4 5 11 15 13
Wind_Direction
283 285 280 273 265 260 259 252 251 260 260 258 0 30 75 89 100 97 97 93 93 91 88 85 81 78 80 88 101 116 131 173 216 220 216 215 214 212
282 289 295 290 279 268 260 254 241 237 243 209 137 97 87 96 92 96 98 94 89 89 87 86 82 77 74 75 77 78 79 79 79 83 100 130 152 177
294 304 306 303 297 286 273 260 246 222 210 179 120 106 101 105 101 101 99 93 91 90 89 86 84 80 74 72 72 73 74 75 75 74 76 80 85 93
302 313 315 314 313 306 293 276 250 205 170 155 134 112 108 112 111 106 100 97 95 94 92 89 85 81 77 74 72 71 71 71 71 71 71 73 76 78
300 315 316 321 321 320 312 298 267 159 144 137 130 118 108 110 109 104 104 103 100 99 92 87 85 83 80 78 76 74 72 71 71 70 68 67 70 72
208 290 325 337 339 335 335 354 114 120 122 127 127 122 115 110 112 117 114 112 112 107 95 95 91 84 80 81 80 78 75 74 72 72 71 71 70 70
169 145 86 58 38 25 51 75 108 116 121 124 126 125 125 129 126 126 124 122 114 124 124 117 105 93 83 79 81 82 80 78 77 75 75 75 75 75
167 151 136 107 83 71 71 74 86 113 122 123 124 131 132 134 135 140 137 137 131 151 133 118 106 93 87 85 91 91 86 82 78 75 74 78 83 84
166 163 155 134 128 108 91 81 73 73 91 116 123 127 128 138 139 134 137 133 123 146 129 114 108 99 99 106 113 105 96 86 78 73 72 77 88 94
165 163 151 146 145 136 114 97 84 74 89 96 100 103 104 107 113 124 124 111 106 126 131 122 126 119 117 120 137 123 111 97 84 72 64 66 89 103
163 156 151 147 145 135 120 110 102 92 83 91 96 99 100 101 110 122 131 128 129 139 140 124 135 131 130 135 152 145 127 112 95 76 62 53 78 112
156 151 152 144 142 136 129 123 115 113 112 105 99 104 105 96 88 102 140 140 130 121 132 130 148 145 134 145 152 158 140 124 110 87 68 55 54 71
160 156 153 149 144 135 134 128 130 127 122 120 116 112 98 80 66 55 55 105 112 91 89 115 143 141 124 132 137 150 149 148 149 126 95 80 70 69
166 157 151 152 147 141 134 140 146 144 137 134 129 120 100 86 77 72 70 76 85 81 41 50 87 106 117 120 122 117 110 118 131 142 137 123 100 88
191 152 147 150 146 143 146 152 159 160 149 141 127 111 104 108 104 91 80 74 68 65 51 41 47 57 85 102 103 105 113 96 79 91 133 156 154 138
160 142 142 150 151 140 147 164 188 194 156 127 115 115 122 132 131 127 113 103 93 76 59 53 52 58 63 73 88 84 81 91 78 50 21 147 131 119
146 146 147 152 154 152 160 176 192 176 132 123 126 139 154 156 150 147 141 134 123 121 110 84 77 78 71 60 68 59 68 82 105 15 311 128 135 130
165 155 154 160 161 160 166 173 179 151 129 129 140 153 154 144 138 148 159 148 143 144 149 152 137 115 85 39 23 52 64 41 13 352 356 38 99 129
184 159 157 162 163 163 166 167 162 145 136 140 149 148 137 133 140 154 146 129 126 130 142 156 165 173 180 159 301 327 100 80 17 15 7 350 326 156
197 162 161 164 164 162 164 161 149 140 143 147 147 142 140 144 150 152 139 133 129 129 123 98 74 57 74 125 147 200 226 153 134 53 325 323 334 120
196 165 163 162 159 156 156 147 139 142 150 143 141 145 149 149 155 151 124 125 147 148 128 110 114 131 17 13 164 165 200 212 194 190 214 261 288 281
197 170 159 153 151 150 142 139 141 147 149 145 141 151 155 153 144 132 135 161 176 134 124 135 180 210 230 247 208 167 177 200 227 222 232 227 221 233
195 164 145 147 143 139 141 147 146 148 153 151 146 160 159 147 144 147 162 179 151 140 149 165 188 212 216 211 228 209 196 198 189 191 236 234 236 247